Satellite-Ground Cal/Val Region Overpasses Predictions

Prediction of Satellite NPP Overpassing Cal/Val Region: PacNW

Region Location: (Latitude: 10.00, Longitude: 139.50) to (Latitude: 22.70, Longitude: 165.60).

Table of predicted overpasses for the next 14.0 days since TLE Epoch: 9/20/2019
Interval Starting Time Starting Location Ending Time Ending Location
1 09/21/2019 03:43:08 ( 10.04, 144.02) 09/21/2019 03:46:43 ( 22.67, 141.01)
2 09/21/2019 14:34:43 ( 18.46, 165.60) 09/21/2019 14:37:07 ( 10.00, 163.62)
3 09/21/2019 16:15:01 ( 22.68, 141.26) 09/21/2019 16:17:04 ( 15.46, 139.51)
4 09/22/2019 03:24:06 ( 10.01, 148.78) 09/22/2019 03:27:42 ( 22.69, 145.76)
5 09/22/2019 15:55:59 ( 22.65, 146.01) 09/22/2019 15:59:34 ( 10.03, 143.01)
6 09/23/2019 03:05:04 ( 10.04, 153.53) 09/23/2019 03:08:39 ( 22.66, 150.53)
7 09/23/2019 15:36:57 ( 22.68, 150.78) 09/23/2019 15:40:33 ( 10.00, 147.76)
8 09/24/2019 02:46:02 ( 10.01, 158.30) 09/24/2019 02:49:38 ( 22.69, 155.28)
9 09/24/2019 15:17:56 ( 22.65, 155.53) 09/24/2019 15:21:31 ( 10.03, 152.53)
10 09/25/2019 02:27:00 ( 10.04, 163.05) 09/25/2019 02:30:35 ( 22.66, 160.05)
11 09/25/2019 14:58:53 ( 22.68, 160.30) 09/25/2019 15:02:29 ( 10.00, 157.28)
12 09/26/2019 02:10:39 ( 19.47, 165.60) 09/26/2019 02:11:34 ( 22.69, 164.80)
13 09/26/2019 03:49:28 ( 10.02, 142.44) 09/26/2019 03:52:58 ( 22.35, 139.51)
14 09/26/2019 14:39:52 ( 22.65, 165.05) 09/26/2019 14:43:27 ( 10.03, 162.05)
15 09/26/2019 16:21:22 ( 22.65, 139.68) 09/26/2019 16:21:33 ( 22.00, 139.51)
16 09/27/2019 03:30:26 ( 10.05, 147.20) 09/27/2019 03:34:01 ( 22.67, 144.19)
17 09/27/2019 16:02:19 ( 22.67, 144.44) 09/27/2019 16:05:54 ( 10.06, 141.44)
18 09/28/2019 03:11:24 ( 10.02, 151.96) 09/28/2019 03:14:59 ( 22.64, 148.96)
19 09/28/2019 15:43:18 ( 22.64, 149.19) 09/28/2019 15:46:53 ( 10.02, 146.19)
20 09/29/2019 02:52:22 ( 10.05, 156.71) 09/29/2019 02:55:57 ( 22.67, 153.71)
21 09/29/2019 15:24:15 ( 22.67, 153.96) 09/29/2019 15:27:50 ( 10.05, 150.96)
22 09/30/2019 02:33:20 ( 10.02, 161.48) 09/30/2019 02:36:55 ( 22.65, 158.47)
23 09/30/2019 15:05:13 ( 22.70, 158.73) 09/30/2019 15:08:49 ( 10.02, 155.71)
24 10/01/2019 02:15:06 ( 12.82, 165.60) 10/01/2019 02:17:54 ( 22.68, 163.23)
25 10/01/2019 03:55:47 ( 10.00, 140.87) 10/01/2019 03:57:27 ( 15.88, 139.51)
26 10/01/2019 14:46:11 ( 22.67, 163.48) 10/01/2019 14:49:46 ( 10.05, 160.47)
27 10/02/2019 03:36:46 ( 10.04, 145.62) 10/02/2019 03:40:21 ( 22.66, 142.62)
28 10/02/2019 14:30:18 ( 11.60, 165.59) 10/02/2019 14:30:45 ( 10.02, 165.23)
29 10/02/2019 16:08:39 ( 22.69, 142.87) 10/02/2019 16:12:15 ( 10.01, 139.85)
30 10/03/2019 03:17:44 ( 10.01, 150.39) 10/03/2019 03:21:20 ( 22.69, 147.37)
31 10/03/2019 15:49:37 ( 22.66, 147.62) 10/03/2019 15:53:12 ( 10.04, 144.62)
32 10/04/2019 02:58:42 ( 10.04, 155.14) 10/04/2019 03:02:17 ( 22.67, 152.13)


NCC Satellite Cal/Val Overpasses Prediction Service
